Location: *
(35.2348°S, 91.3916°E)
Time: 15:33:33
(UTC+00:00)

OAO 3 Rocket - Pass Details

Date: 23 October 2019
Orbit: 629 x 683 km, 35.0° (Epoch: 21 November)

Event Time Altitude Azimuth Distance (km) Brightness Sun altitude
Exits shadow 20:40:29 62° 74° (ENE) 742 3.5 -26.5°
Drops below altitude 10° 20:44:32 10° 95° (E) 2,056 6.5 -25.9°
Sets 20:46:53 0° 96° (E) 2,959 7.5 -25.5°
